AXM823 VTSP-WMKK

Flight info

Callsign AXM823
Flight time N/A
Altitude 35000
Route REBED1B REBED B579 VPL Y509 ANGUN Y508 NIREN NIREN1G
Aircraft A320/M-SDE3FGHIRWY/LB1

Departure

Time N/A
Airport Phuket International Airport (VTSP)

Arrival

Time 2026-05-03 20:27
Airport Kuala Lumpur International Airport (WMKK)
Time Latitude Longitude Altitude Speed Heading
2026-05-03 20:15 2.96267 101.65063 14105 ft 334 kts 139°
2026-05-03 20:15 2.94494 101.66561 13709 ft 333 kts 139°
2026-05-03 20:15 2.92720 101.68055 13270 ft 332 kts 139°
2026-05-03 20:15 2.90984 101.69519 12871 ft 330 kts 139°
2026-05-03 20:16 2.89238 101.70998 12468 ft 328 kts 139°
2026-05-03 20:16 2.87500 101.72470 12061 ft 326 kts 139°
2026-05-03 20:16 2.85775 101.73929 11658 ft 324 kts 139°
2026-05-03 20:16 2.84066 101.75375 11353 ft 319 kts 139°
2026-05-03 20:17 2.82387 101.76796 11128 ft 311 kts 139°
2026-05-03 20:17 2.80761 101.78174 10878 ft 302 kts 139°
2026-05-03 20:17 2.79076 101.79399 10265 ft 299 kts 145°
2026-05-03 20:17 2.77368 101.80546 9782 ft 291 kts 146°
2026-05-03 20:18 2.75710 101.81658 9364 ft 285 kts 146°
2026-05-03 20:18 2.74061 101.82762 8964 ft 285 kts 146°
2026-05-03 20:18 2.72415 101.83865 8574 ft 284 kts 146°
2026-05-03 20:18 2.70772 101.84965 8161 ft 284 kts 146°
2026-05-03 20:19 2.69133 101.86063 7766 ft 284 kts 146°
2026-05-03 20:19 2.67519 101.87145 7625 ft 272 kts 146°
2026-05-03 20:19 2.65983 101.88175 7529 ft 260 kts 146°
2026-05-03 20:19 2.64517 101.89157 7371 ft 251 kts 146°
2026-05-03 20:20 2.63085 101.90116 7169 ft 243 kts 147°
2026-05-03 20:20 2.61690 101.91047 6896 ft 240 kts 148°
2026-05-03 20:20 2.60173 101.91676 6573 ft 236 kts 175°
2026-05-03 20:20 2.58585 101.91453 6236 ft 232 kts 207°
2026-05-03 20:21 2.57337 101.90464 5859 ft 230 kts 228°
2026-05-03 20:21 2.56294 101.89252 5512 ft 230 kts 231°
2026-05-03 20:21 2.55285 101.88015 5211 ft 229 kts 232°
2026-05-03 20:21 2.54535 101.86639 4850 ft 224 kts 256°
2026-05-03 20:22 2.54489 101.85100 4374 ft 223 kts 284°
2026-05-03 20:22 2.55167 101.83712 4027 ft 224 kts 307°
2026-05-03 20:22 2.56103 101.82475 3634 ft 222 kts 307°
2026-05-03 20:22 2.57033 101.81242 3169 ft 222 kts 307°
2026-05-03 20:23 2.57958 101.80015 2840 ft 220 kts 307°
2026-05-03 20:23 2.58874 101.78799 2600 ft 217 kts 307°
2026-05-03 20:23 2.59758 101.77622 2488 ft 207 kts 307°
2026-05-03 20:23 2.60678 101.76610 2380 ft 191 kts 321°
2026-05-03 20:24 2.61737 101.75855 2085 ft 183 kts 326°
2026-05-03 20:24 2.62769 101.75161 1853 ft 170 kts 326°
2026-05-03 20:24 2.63704 101.74534 1637 ft 155 kts 326°
2026-05-03 20:24 2.64576 101.73950 1440 ft 148 kts 326°
2026-05-03 20:25 2.65415 101.73387 1253 ft 145 kts 326°
2026-05-03 20:25 2.66251 101.72827 1066 ft 144 kts 326°
2026-05-03 20:25 2.67082 101.72269 895 ft 144 kts 327°
2026-05-03 20:25 2.67910 101.71714 732 ft 143 kts 326°
2026-05-03 20:26 2.68736 101.71161 559 ft 142 kts 327°
2026-05-03 20:26 2.69546 101.70617 372 ft 142 kts 326°
2026-05-03 20:26 2.70363 101.70070 213 ft 141 kts 326°
2026-05-03 20:26 2.71175 101.69530 46 ft 134 kts 328°
2026-05-03 20:27 2.71865 101.69070 39 ft 103 kts 326°
2026-05-03 20:27 2.72395 101.68710 37 ft 84 kts 325°
2026-05-03 20:27 2.72756 101.68465 39 ft 36 kts 327°
2026-05-03 20:27 2.72950 101.68401 38 ft 28 kts 351°
2026-05-03 20:28 2.73131 101.68382 38 ft 23 kts 352°
2026-05-03 20:28 2.73279 101.68323 38 ft 24 kts 326°
2026-05-03 20:28 2.73417 101.68227 38 ft 25 kts 326°
2026-05-03 20:28 2.73563 101.68129 38 ft 26 kts 326°
2026-05-03 20:29 2.73675 101.68111 36 ft 15 kts 42°
2026-05-03 20:29 2.73733 101.68190 41 ft 13 kts 56°
2026-05-03 20:29 2.73778 101.68260 42 ft 11 kts 57°
2026-05-03 20:29 2.73817 101.68320 42 ft 9 kts 57°
2026-05-03 20:30 2.73855 101.68379 42 ft 13 kts 56°
2026-05-03 20:30 2.73917 101.68472 42 ft 15 kts 56°
2026-05-03 20:30 2.73972 101.68480 41 ft 8 kts 325°
2026-05-03 20:30 2.74015 101.68452 42 ft 5 kts 326°
2026-05-03 20:31 2.74017 101.68450 42 ft 0 kts 326°